Reflectivity
-20 -20 -20 -20 -20 -20 -20 -20 -20 -10 -11 -20 -20 -20 -20 -20 -20 -20 -20 -20 -20 -20 -20 -20 -20 -20 -20 -20 -20 -20 -20 -20 -20 -20 -20 -20 -20 -20 -20 -20 -20 -20 -20 -14 -20 -20 -20
-20 -20 -20 -20 -20 -20 -20 -20 -20 -20 6 4 -20 -20 -20 -20 -20 -20 -20 -20 -20 -20 -20 -4 -20 -20 -20 -20 -20 -20 -20 -20 -20 -20 -20 -20 -20 -20 -20 -20 -20 -20 -20 -20 -20 -20 -20
-3 -20 -20 -20 -20 -20 -20 -20 -20 -20 -7 -20 -20 -20 -20 -20 -20 -20 -20 -20 -20 -20 -20 -20 -20 -20 -20 -20 -20 -20 -20 -20 -20 -20 -20 -20 -20 -20 -20 -20 -20 -20 -20 -20 -20 -20 -20
-20 -3 -20 -20 -20 -8 -15 -20 -20 -20 -20 -20 -18 -19 -20 -20 -20 -20 -20 -20 -20 -20 -20 -20 -20 -20 -20 -20 -20 -20 -20 -20 -20 -20 -20 -20 -20 -20 -20 -20 -18 -20 -20 -11 -20 -18 -20
-19 -19 0 -17 -20 -20 2 5 -16 -20 -20 -7 10 1 -20 -20 -20 -20 -20 -20 -20 -20 -20 -20 -20 -20 -20 -20 -20 -20 -20 -20 -20 -20 -20 -20 -20 -20 -20 -20 -20 -20 -20 -20 -20 -15 -20
1 -20 -20 -0 5 -20 -20 -20 5 5 -20 -20 -16 -16 -20 -20 -20 -20 -20 -20 -20 -20 -20 -20 -20 -20 -20 -20 -20 -20 -20 -20 -20 -20 -20 -20 -20 -20 -20 -20 -20 -20 -15 2 7 -15 -20
13 11 0 -15 1 1 -20 -20 -20 9 12 -10 -8 -7 -20 -20 -20 -20 -20 -20 -20 -20 -20 -20 -20 -20 -20 -20 -20 -20 -20 -20 -20 -20 -20 -20 -20 -20 -20 -20 -20 -20 -20 -13 -20 -20 -20
12 6 -6 10 2 6 -5 -20 -20 -20 3 -4 -1 -9 5 -8 -20 -18 -6 -20 -20 -20 -20 -20 -20 -20 -20 -20 -20 -20 -20 -20 -20 -20 -20 -20 -20 -20 -20 -20 -17 -20 -20 -20 -20 -20 -20
7 12 14 6 6 -0 -11 5 -20 -1 -20 -1 -18 9 17 10 -9 9 4 -20 -20 -20 -20 -20 -20 -20 -20 -20 -20 -20 -20 -20 -20 -20 -20 -20 -20 -20 -20 -2 -20 -20 -20 -20 -20 -20 -20
6 -3 10 14 11 11 8 9 -20 -20 -20 -20 -20 1 1 5 3 5 -19 -20 -20 -20 -20 -20 -20 -20 -20 -20 -20 -20 -20 -20 -20 -20 -20 -20 -20 -20 -16 -2 -20 -20 -20 -20 -20 -20 -20
23 18 3 11 13 12 6 -15 8 -19 -20 -20 -3 2 13 4 11 11 -20 -20 -20 -20 -20 -20 -20 -20 -20 -20 -20 -20 -20 -20 -20 -20 -20 -20 -20 -20 -14 -18 -20 -20 -20 -20 -20 -20 -20
19 19 20 -0 14 12 8 5 6 6 4 -20 11 17 -7 11 16 14 -16 -18 -20 -20 -20 -20 -20 -20 -20 -20 -20 -20 -20 -20 -20 -20 -20 -20 -20 -20 -20 -20 -20 -20 -20 -20 -20 -20 -20
4 3 16 20 7 -8 4 15 9 5 6 -18 0 18 3 -11 6 -2 -20 14 -2 -20 -20 -20 -20 -20 -20 -20 -20 -20 -20 -20 -20 -20 -20 -20 -20 -20 -20 -20 -20 -20 -20 -20 -20 -20 -20
-20 16 17 14 16 -7 -20 11 15 15 10 -16 3 -1 15 -9 4 -14 -20 -4 1 -20 -20 -20 -20 -20 -20 -20 -20 -20 -20 -20 -20 -20 -20 -20 -20 -20 -20 -20 -20 -20 -20 -20 -20 -20 -20
-20 -4 28 10 19 15 -16 4 11 15 7 11 5 15 18 -8 -14 -14 -1 4 -20 -20 -20 -20 -20 -20 -20 -20 -20 -20 -20 -20 -20 -20 -20 -20 -20 -20 -20 -20 -20 -20 -20 -20 -20 -20 -20
-20 -7 23 22 19 21 7 -20 2 12 12 14 15 14 9 11 3 -16 -1 -20 -20 -20 -20 -20 -20 -20 -20 -20 -20 -20 -20 -20 -20 -20 -20 -20 -19 -20 -20 -20 -20 -20 -20 -20 -20 -20 -20
-20 -10 -8 9 14 16 19 -17 -20 16 13 13 16 19 -4 9 19 -1 10 -5 -20 -12 -20 -20 -20 -20 -20 -20 -20 -20 -20 -20 -20 -20 -20 -20 -20 -17 -20 -20 -1 -20 -20 -20 -20 -20 -20
0 -7 -6 -20 16 -20 25 11 -20 17 12 18 20 17 11 -20 24 -6 -4 -20 -20 -4 -20 -20 -20 -20 -20 -20 -20 -20 -20 -20 -20 -20 -20 -20 -20 -20 -20 -20 -8 7 -20 -20 -20 -20 -20
1 3 1 -12 5 -16 32 -15 -15 1 -4 10 20 10 20 -15 14 -17 -15 1 -19 -1 -20 -20 -20 -20 -20 -20 -20 -20 -20 -20 -20 -20 -20 -20 -20 -20 -20 -20 -20 -20 -20 -20 -20 -20 -20
20 3 2 -6 17 21 22 -20 -20 6 12 18 20 18 27 14 -20 -20 -13 -13 -19 -20 -20 -20 -20 -20 -20 -20 -20 -20 -20 -20 -20 -12 -20 -5 -20 -20 -20 -20 -20 -20 -20 -20 -20 -20 -20
22 -1 2 10 18 16 15 -7 -20 5 12 18 19 13 -3 2 -20 -20 -20 -20 -20 -20 -20 -20 -20 -20 -20 -20 -20 -20 -20 -20 -20 -20 -20 -1 -20 -20 -20 -20 -20 -20 -20 -20 -20 -20 -20
20 6 8 9 -20 3 -20 -20 -20 21 16 22 20 16 11 -20 -17 -20 -20 -20 -20 -20 -20 -20 -20 -20 -20 -20 -20 -20 -20 -20 -20 -20 -20 -20 -20 -20 -20 -20 -20 -20 -20 -20 -20 -20 -20
18 7 7 6 -20 6 -20 -20 -3 30 31 26 21 -18 15 -20 -15 -16 -20 -20 -20 -20 -20 -20 -20 -20 -20 -20 -20 -20 -20 -16 -20 -20 -20 -20 -20 -20 -20 -20 -20 -20 -20 -20 -20 -20 -20
10 7 7 6 -20 -20 -20 -20 -19 30 35 20 22 -8 19 -14 -2 -20 -20 -20 -20 -20 -20 -20 -20 -20 -20 -20 -20 -20 -20 -20 -4 -20 -20 -20 -20 -20 -20 -20 -20 -20 -20 -20 -20 -20 -20
6 5 4 6 -20 -19 -20 -20 13 27 33 16 20 19 21 11 6 -20 -20 -20 -20 -20 -20 -20 -20 -20 -20 -20 -20 -20 16 12 -14 -20 -20 -20 2 -20 -20 -20 -20 -20 -20 -20 -20 -20 -20
-20 -6 2 5 -20 -20 -20 -1 10 9 29 -7 18 22 21 22 -20 6 -20 -20 -20 -20 -20 -20 -20 -20 -20 -16 -20 -20 -20 -20 -20 -20 -20 -20 21 22 -20 -20 -20 -20 -20 -20 -20 -20 -20
-2 1 -1 8 0 -20 4 -7 -20 -19 17 -14 30 32 21 4 16 -20 -6 -20 -20 -20 -20 -20 -20 -20 -20 -20 -20 -20 -20 -20 -20 -20 -20 -20 -20 -20 -20 -20 -20 -20 -20 -20 -20 -20 -20
10 14 8 2 -13 -7 -17 -14 -20 -18 -8 15 19 29 33 40 8 14 -20 -20 -20 -20 -20 -20 19 22 22 5 -20 -20 -20 -20 -20 -20 -20 -20 -20 -20 -20 -20 -20 -20 -20 -20 -20 -20 -20
13 -20 -20 -20 11 1 -20 -19 -18 -18 17 11 22 22 22 31 10 19 -20 -20 -20 -20 -20 -20 5 -20 -16 -20 -20 -20 -20 -20 -20 -20 -20 -20 -20 -20 -20 -20 -20 -20 -20 -20 -20 -20 -20
Wind_Speed
13 12 9 8 8 7 7 7 8 10 10 9 9 9 8 9 10 9 9 11 12 13 13 13 12 13 5 3 10 1 8 10 8 7 5 4 2 1 3 4 2 7 10 9 12 10 4
14 12 12 11 9 7 9 7 8 10 9 10 10 10 9 8 9 9 9 11 10 13 12 12 10 10 2 3 2 7 9 6 4 5 5 5 4 4 5 4 2 5 9 1 11 10 4
17 16 14 13 11 9 10 9 9 9 9 10 10 10 10 8 8 8 10 11 10 11 10 8 8 4 1 15 3 4 8 7 6 5 3 5 3 3 2 8 5 6 4 7 5 8 5
17 17 16 14 11 11 10 10 9 8 9 10 10 10 9 9 9 8 10 10 9 11 9 8 6 1 9 5 3 6 5 4 5 6 3 6 4 4 1 4 7 4 5 5 6 8 4
20 19 18 16 14 13 11 11 10 9 10 9 10 9 9 9 9 8 10 11 9 11 8 8 2 0 12 13 6 8 12 8 5 5 5 6 3 1 6 3 6 5 1 2 6 7 4
22 20 20 18 17 15 13 13 11 10 11 9 9 9 9 9 7 8 11 13 6 6 1 5 5 4 7 4 6 4 8 7 5 3 2 1 5 3 4 4 2 1 4 2 4 6 5
25 24 21 20 18 17 16 15 12 10 10 9 10 10 9 7 5 6 7 4 3 1 2 9 5 5 6 6 7 6 5 7 3 4 3 1 4 3 6 8 4 5 2 5 5 4 5
26 25 23 21 21 19 19 17 14 11 11 12 10 10 9 6 3 3 1 1 4 3 9 14 18 11 15 1 7 6 6 6 5 5 1 4 4 6 7 1 5 3 6 8 8 9 5
27 26 25 24 23 22 20 19 15 12 12 11 11 11 10 7 1 1 3 6 5 11 4 8 8 7 7 10 8 7 9 5 5 5 7 6 7 1 5 5 3 5 3 4 5 4 6
31 28 26 25 24 22 19 19 18 13 12 11 10 10 11 11 1 2 4 5 6 7 3 8 7 8 6 6 6 7 8 8 3 10 7 4 2 5 2 4 3 6 12 6 2 4 4
30 31 29 26 23 20 19 19 18 14 12 11 11 12 13 10 3 2 1 8 5 2 3 6 6 4 9 9 3 3 7 3 10 3 6 6 5 4 4 6 4 11 7 2 1 5 4
30 32 32 28 25 22 21 20 18 16 13 11 11 13 15 2 1 6 10 7 3 5 9 4 8 7 7 6 4 3 4 4 4 5 1 4 2 5 7 7 8 3 2 6 5 4 4
34 32 34 31 29 24 20 21 19 18 15 12 12 15 13 7 4 1 3 2 3 5 5 5 7 8 8 7 5 6 3 4 6 4 2 1 4 3 2 0 3 4 5 4 3 5 6
33 32 32 32 30 26 23 19 18 16 15 12 12 15 9 5 3 5 2 2 11 8 8 4 7 10 9 7 8 6 5 6 2 4 3 4 5 3 4 4 3 5 7 7 4 3 4
32 29 30 31 30 27 25 19 21 17 14 13 11 6 4 6 2 2 3 11 8 7 5 4 2 8 6 6 7 7 9 8 10 9 8 6 4 5 5 3 5 3 2 3 7 3 2
35 32 27 28 27 27 26 23 16 20 17 15 7 4 5 7 8 2 6 15 8 9 6 2 7 8 9 9 8 8 8 7 7 10 8 6 3 2 4 4 1 3 3 3 4 4 3
36 35 33 29 25 25 27 23 21 20 18 18 8 7 10 13 6 4 14 12 17 21 8 4 6 3 9 9 10 8 8 6 8 6 8 6 3 6 3 4 9 5 3 2 5 5 6
36 35 33 33 32 27 29 26 25 24 23 18 7 9 13 14 8 7 16 13 9 21 7 8 5 10 10 10 9 8 10 8 6 10 10 9 6 5 10 7 7 2 6 6 7 4 0
37 35 32 31 31 31 31 26 25 26 30 12 6 6 10 14 13 15 6 17 17 13 6 5 6 7 3 6 5 4 4 3 7 5 9 8 2 3 8 4 3 6 6 5 5 4 6
38 35 35 33 32 32 30 26 25 25 29 13 6 10 7 8 9 20 19 15 21 13 18 12 9 5 2 3 2 6 4 4 3 8 1 8 5 8 9 9 4 3 3 5 6 4 4
37 36 35 33 34 32 29 28 26 26 27 16 7 8 9 16 19 15 21 15 21 15 13 10 11 16 8 5 3 3 5 2 2 4 4 4 5 4 4 2 2 0 2 1 6 6 7
38 35 34 33 32 31 30 30 28 26 31 15 8 5 8 4 16 20 20 23 26 20 13 18 12 12 8 6 8 9 9 6 7 2 5 2 3 1 4 3 1 3 4 4 5 3 5
37 36 34 33 33 31 30 26 29 28 31 6 9 5 6 9 19 19 21 24 27 19 14 26 10 12 5 9 6 6 6 6 10 8 3 4 7 4 5 4 5 6 8 6 5 4 5
35 33 33 33 33 30 29 25 29 30 22 4 8 2 6 9 14 21 24 22 26 20 21 12 20 10 3 15 9 10 12 11 9 6 5 7 5 3 3 3 2 9 4 5 8 4 6
32 33 33 33 31 29 30 26 29 29 25 8 1 3 3 4 12 15 25 20 16 18 19 25 6 8 14 6 6 6 6 7 6 6 5 2 7 3 6 4 5 6 3 6 6 1 3
31 31 32 31 32 29 27 29 28 26 26 11 9 2 3 2 14 14 20 22 16 13 13 5 0 2 4 5 5 6 6 6 4 3 5 7 6 6 3 5 7 8 4 2 6 2 5
29 30 31 30 29 27 28 28 27 26 27 13 7 7 2 5 4 18 17 20 16 5 8 4 4 2 4 4 4 4 4 7 6 9 4 4 4 6 2 2 9 9 5 2 7 9 6
26 26 26 25 25 26 26 28 29 25 24 16 7 8 4 5 7 3 11 15 14 10 9 5 5 3 4 5 5 4 5 6 5 6 8 8 7 4 4 3 7 6 3 7 8 4 8
23 22 23 24 25 26 26 26 24 23 26 22 3 6 5 4 5 7 13 13 17 10 7 1 7 6 5 5 1 5 3 3 5 4 3 1 8 8 9 9 6 4 5 5 7 7 5
Wind_Direction
265 262 261 261 259 265 277 294 284 250 256 263 265 266 270 281 292 294 305 313 316 310 312 315 329 333 359 358 252 64 110 123 131 149 168 184 207 173 238 249 2 207 253 243 172 178 218
264 257 258 256 259 247 265 270 285 258 247 258 263 263 265 275 287 294 305 305 308 306 312 321 332 331 8 301 189 145 136 146 168 181 193 190 228 255 261 263 200 288 249 199 166 166 200
264 260 253 251 247 248 255 254 260 265 244 247 254 259 263 272 283 294 302 300 307 305 308 317 330 325 284 236 75 176 164 193 185 198 197 205 214 255 291 319 333 294 207 74 117 165 155
254 258 253 246 243 241 245 260 253 265 254 247 247 252 257 265 279 289 297 297 303 297 302 295 314 323 252 252 260 253 217 252 261 234 220 263 282 273 272 305 350 26 46 106 246 147 159
250 257 255 249 242 237 236 244 252 255 255 242 249 252 256 263 277 292 298 292 288 286 277 277 287 23 267 310 232 218 171 216 189 268 292 285 339 287 360 54 2 2 155 163 170 143 116
252 244 252 254 248 240 238 245 240 240 248 241 242 246 249 258 280 303 306 283 262 316 250 239 260 335 272 254 249 216 187 176 191 181 303 62 45 36 26 61 233 328 248 286 173 226 118
250 249 242 245 249 247 245 242 244 247 239 242 237 231 237 247 279 317 347 358 31 19 246 208 194 261 272 331 269 239 185 139 124 89 195 206 75 217 229 211 229 288 27 325 310 253 111
244 244 246 243 244 245 238 245 247 246 255 239 228 225 214 214 255 333 64 207 235 225 295 228 247 244 260 340 309 293 107 134 139 202 183 34 258 220 234 253 357 13 8 313 287 258 130
236 236 242 238 242 240 245 242 239 235 243 253 223 212 188 169 132 79 226 235 282 22 284 283 201 201 220 151 221 250 153 158 180 182 207 158 231 79 11 294 342 324 260 277 243 61 39
230 227 232 239 236 233 240 238 231 231 228 246 221 199 169 127 128 187 244 273 250 148 317 271 196 247 181 174 268 225 195 164 189 201 218 224 258 177 225 305 77 305 272 217 291 78 158
246 230 220 227 229 231 233 238 232 229 222 237 218 181 160 159 140 202 241 350 5 41 352 248 173 196 164 158 225 235 193 120 218 177 127 247 198 159 191 232 236 255 275 212 219 83 85
244 246 230 216 222 225 229 232 229 225 217 223 215 178 151 240 339 243 303 316 89 55 251 270 150 176 135 176 248 310 156 183 174 168 212 232 291 130 209 232 243 267 68 53 41 79 37
241 248 227 222 211 211 226 230 223 223 211 215 210 178 162 159 194 312 290 66 191 198 301 203 173 164 172 181 234 179 220 191 164 94 288 53 209 263 141 17 346 94 56 351 12 21 213
240 244 216 219 213 204 214 224 223 219 206 208 200 172 206 185 48 20 59 122 220 220 240 317 165 167 174 177 221 197 177 181 261 111 150 171 339 323 352 70 333 233 148 154 215 189 249
230 231 217 215 207 203 197 210 217 225 206 199 176 190 177 218 172 33 115 214 197 224 206 220 133 150 211 197 183 174 186 202 197 166 170 151 229 286 169 132 119 324 145 172 103 7 34
220 217 217 208 208 211 200 193 202 214 207 190 205 176 189 144 140 144 202 225 221 237 7 302 180 174 180 205 168 174 198 202 211 177 145 207 160 235 296 57 140 135 231 53 13 135 252
215 213 210 212 203 204 210 193 198 216 202 190 211 193 151 133 136 211 213 215 229 262 301 291 217 235 205 177 190 183 207 240 201 164 121 136 122 297 347 227 193 339 313 90 120 139 164
210 209 209 210 206 198 209 195 196 202 203 187 210 197 159 140 173 221 219 191 236 256 262 267 279 222 205 182 185 192 198 206 152 147 159 193 135 174 211 248 195 175 241 163 122 239 133
204 202 199 202 196 191 198 187 195 203 201 179 200 175 181 159 190 217 209 210 234 249 208 236 257 209 194 159 126 139 170 193 197 115 151 188 161 57 347 11 286 218 206 186 115 89 194
199 198 197 196 191 193 193 190 200 201 206 186 186 170 175 198 216 196 197 201 216 237 248 264 277 307 233 159 185 153 122 292 95 136 173 106 141 162 182 198 179 205 248 182 128 115 186
191 191 192 191 186 188 190 196 198 196 211 189 212 195 167 195 201 208 187 193 215 228 212 206 249 235 246 176 81 141 115 304 47 123 124 120 156 161 196 186 160 232 285 9 168 205 155
184 184 184 184 183 186 192 198 199 197 207 199 193 198 147 206 190 195 188 207 208 211 235 214 242 255 194 168 175 201 132 191 182 172 131 47 185 201 194 83 43 215 272 270 235 191 237
179 182 183 181 183 186 190 201 197 202 194 185 224 277 169 199 184 185 201 195 215 204 217 239 220 236 213 213 150 185 150 161 152 140 116 109 132 112 235 5 18 355 231 220 245 211 184
172 178 181 183 185 189 192 197 192 193 202 197 220 297 216 187 191 197 190 198 209 204 211 213 228 210 220 123 93 46 49 57 78 57 129 129 105 101 192 41 28 238 278 218 109 26 96
169 175 179 183 185 188 193 188 200 197 202 210 254 200 261 184 189 191 196 206 205 213 210 228 255 204 165 84 77 71 354 25 352 35 66 47 116 105 134 182 291 303 219 177 134 357 332
169 175 179 178 181 182 180 192 189 191 197 222 226 38 286 188 212 180 193 200 199 197 223 188 309 277 87 96 86 133 176 170 165 115 56 74 77 116 128 137 199 237 247 152 108 134 197
166 170 173 177 180 181 183 186 190 190 200 211 211 202 305 292 234 180 196 199 191 154 189 161 176 197 61 92 98 137 212 166 152 163 176 43 20 139 113 185 287 245 241 90 106 222 153
160 164 167 172 178 181 182 187 193 192 199 201 214 185 174 272 276 289 192 192 187 186 166 190 96 318 71 83 125 191 126 210 98 168 172 154 137 180 101 70 278 194 108 155 200 152 143
158 164 173 176 176 179 181 185 191 188 198 182 209 203 257 270 291 327 275 263 210 157 135 114 172 151 158 95 15 105 109 87 134 208 136 155 175 177 172 210 230 235 170 128 147 139 133